Starlink 35625

operational
NORAD ID: 66140 Int'l Des: 2025-237 Owner: SPXS Country: US Constellation: starlink
LEOCIRCULAR

About Starlink 35625

Description loading...

Live Position

Loading 3D Globe...

Upcoming Passes

Altitude History

Altitude vs Time

uPlot chart will show altitude changes over time

Two-Line Element Set

1 66140U 25237AC 25310.91668981 -.00275356 00000-0 -19390-2 0 9999
2 66140 53.1602 257.5324 0001332 87.6248 353.4302 15.74173990 3726
Epoch: Nov 6, 2025 • Age: 6 hours

Current Status

Altitude 352.9 km
Velocity 7.70 km/s
Sub-Earth Point 52.84°N, 132.61°W
Launch Date Oct 22, 2025
Age 15 days
Type internet

Technical Details

Classification Payload
Mass 575.00 kg
Dry Mass 530.00 kg
Total Mass 575.00 kg
Length 0.30 m
Diameter 4.10 m
Span 29.00 m
Shape Box + pan
Manufacturer SPXS
Bus Type Starlink V2MO
Phase Status In Orbit
Owner/State SPXS/US

Large Constellations

Loading constellations...